Location: ????????
(56.0167°N, 38.0333°E)
Time: 03:25:39
(UTC+00:00)

IDEFIX/ARIANE 42P - Pass Details

Date: 19 May 2025
Orbit: 781 x 796 km, 98.6° (Epoch: 14 June)

Event Time Altitude Azimuth Distance (km) Brightness Sun altitude
Rises 23:07:05 0° 17° (NNE) 3,310 7.9 -11.0°
Reaches altitude 10° 23:09:27 10° 21° (NNE) 2,378 6.6 -10.8°
Maximum altitude 23:14:40 63° 103° (ESE) 891 2.9 -10.5°
Enters shadow 23:19:45 11° 184° (S) 2,323 4.4 -10.2°
